Overview Statistics Trail Chart Weather Telemetry Raw packets
 

This is the latest recevied weather packets stored in our database for station/object MeshWX-2. If no packets are shown the sender has not sent any weather packets the latest 10 day(s).

<< 1 2 3 4 5 6 >>
Time Temp. Humidity Pressure Rain* Wind** Luminosity Snow
1788527007 28.33° C 42% 884.5 hPa - - - -
1788526982 28.33° C 42% 884.8 hPa - - - -
1788524906 28.33° C 42% 884.8 hPa - - - -
1788524882 27.78° C 42% 885 hPa - - - -
1788522866 27.78° C 42% 885 hPa - - - -
1788522841 28.89° C 42% 885.2 hPa - - - -
1788520885 28.89° C 42% 885.2 hPa - - - -
1788520860 26.11° C 43% 885.4 hPa - - - -
1788518845 26.11° C 43% 885.4 hPa - - - -
1788518821 26.11° C 42% 885.3 hPa - - - -
1788516744 26.11° C 42% 885.3 hPa - - - -
1788516719 22.78° C 42% 885.1 hPa - - - -
1788514584 22.78° C 42% 885.1 hPa - - - -
1788514559 19.44° C 44% 885.2 hPa - - - -
1788512484 19.44° C 44% 885.2 hPa - - - -
1788512458 18.89° C 44% 885.2 hPa - - - -
1788510443 18.89° C 44% 885.2 hPa - - - -
1788510417 18.33° C 45% 885.1 hPa - - - -
1788508403 18.33° C 45% 885.1 hPa - - - -
1788508377 17.78° C 46% 884.9 hPa - - - -
1788506362 17.78° C 46% 884.9 hPa - - - -
1788506336 18.33° C 46% 884.8 hPa - - - -
1788504262 18.33° C 46% 884.8 hPa - - - -
1788504235 18.33° C 45% 884.5 hPa - - - -
1788502161 18.33° C 45% 884.5 hPa - - - -

* Rain since midnight (hover to see other rain measurements)
** Current wind speed in m/s (hover to see current wind gust speed)